Location: Beuvrequen
(50.8014°N, 1.6652°E)
Time: 02:43:17
(UTC+00:00)

Cosmos 1356 - Pass Details

Date: 16 October 2021
Orbit: 433 x 436 km, 81.1° (Epoch: 05 December)

Event Time Altitude Azimuth Distance (km) Brightness Sun altitude
Rises 17:43:43 0° 347° (NNW) 2,438 7.2 -7.9°
Reaches altitude 10° 17:45:47 10° 347° (NNW) 1,564 6.3 -8.2°
Maximum altitude 17:49:12 88° 261° (W) 447 3.4 -8.7°
Drops below altitude 10° 17:52:36 10° 170° (S) 1,552 6.1 -9.3°
Sets 17:54:38 0° 170° (S) 2,417 7.0 -9.6°
